Regional Weather Roundup
Issued by NWS

Home | Current Version | Previous Version | Graphics & Text | Print | Product List | Glossary On
Versions: 1 2 3 4 5 6 7 8 9 10 11 12 13 14 15 16 17 18 19 20 21 22 23 24 25 26 27
000
ASUS45 KPSR 030110
RWRAZ

ARIZONA HOURLY REGIONAL WEATHER ROUNDUP
NATIONAL WEATHER SERVICE PHOENIX AZ
600 PM MST FRI DEC 02 2016

NOTE: FAIR INDICATES FEW OR NO CLOUDS BELOW 12,000 FEET WITH NO
SIGNIFICANT WEATHER AND/OR OBSTRUCTIONS TO VISIBILITY.

AZZ001>003-036-030200-
NORTHWEST ARIZONA

CITY           SKY/WX    TMP DP  RH WIND       PRES   REMARKS
BULLHEAD CITY  CLEAR     57  16  19 N28G38    30.02R
KINGMAN        PTCLDY    43  13  29 N20G28    30.03R
$$

AZZ004>008-015-016-018-030200-
NORTH CENTRAL ARIZONA

CITY           SKY/WX    TMP DP  RH WIND       PRES   REMARKS
GRAND CANYON   CLOUDY    30  17  58 NE6       30.04R WCI  24
PRESCOTT       MOCLDY    37  27  67 NE3       29.98R
FLAGSTAFF      MOCLDY    27  19  72 NE6       29.99R WCI  20
PAYSON         MOCLDY    39  21  48 MISG      29.98R
PAGE           CLEAR     41  13  31 NE3       30.07R
$$

AZZ009>014-017-030200-
NORTHEAST ARIZONA

CITY           SKY/WX    TMP DP  RH WIND       PRES   REMARKS
WINSLOW        PTCLDY    34  19  54 W7        30.00R WCI  28
SAINT JOHNS    PTCLDY    33  16  49 W5        29.95R WCI  29
WINDOW ROCK    PTCLDY    34  18  52 NW5       29.99R WCI  30
SHOW LOW       MOCLDY    28  16  59 CALM      29.98R
$$

AZZ023-030200-
GREATER PHOENIX AREA

CITY           SKY/WX    TMP DP  RH WIND       PRES   REMARKS
PHOENIX        MOCLDY    58  27  30 NW7       29.91R
BUCKEYE        PTCLDY    54  32  43 W3        29.94R
GLENDALE       MOCLDY    57  28  33 CALM      29.93R
LUKE AFB       PTCLDY    56  33  42 W5        29.91R
DEER VALLEY    MOCLDY    55  26  32 NW5       29.91R
SCOTTSDALE     CLOUDY    57  28  33 CALM      29.93R
MESA-FALCON    MOCLDY   N/A N/A N/A W6        29.89S
MESA-GATEWAY   MOCLDY    55  28  35 NW8       29.92R
CHANDLER       CLOUDY    57  25  28 W7        29.92R
$$

AZZ027-028-030200-
SOUTHWEST MARICOPA COUNTY AND PINAL COUNTY

CITY           SKY/WX    TMP DP  RH WIND       PRES   REMARKS
CASA GRANDE    NOT AVBL
$$

AZZ503-504-507>509-030200-
SOUTHEAST ARIZONA

CITY           SKY/WX    TMP DP  RH WIND       PRES   REMARKS
TUCSON         MOCLDY    52  20  28 NW13G20   29.90S
DAVIS-MONTHAN  CLOUDY    51  20  29 W10       29.88S
RYAN FIELD     PTCLDY    52  23  32 NW9       29.92
NOGALES        LGT RAIN  50  33  52 E10       29.86R
SIERRA VISTA   CLOUDY    47  31  54 S7        29.88S
DOUGLAS        CLOUDY    52  30  43 S5        29.87R
SAFFORD        CLOUDY    54  16  22 W7        29.85R
$$

AZZ020-021-025-026-031-030200-
SOUTHWEST ARIZONA

CITY           SKY/WX    TMP DP  RH WIND       PRES   REMARKS
YUMA           CLOUDY    63  21  20 N15       29.94S
$$

CAZ031-033-041-043-047-048-061-030200-
SOUTHERN CALIFORNIA

CITY           SKY/WX    TMP DP  RH WIND       PRES   REMARKS
DOWNTOWN L.A.  PTCLDY    61   7  11 VRB6      30.01S
L.A. AIRPORT   PTCLDY    62   6  11 NE14G25   30.02R
SAN DIEGO      PTCLDY    66  16  14 N10       29.96R
BURBANK        PTCLDY    58   4  11 NE8       30.03R
ONTARIO        PTCLDY    56   7  14 NE23G36   30.01R
RIVERSIDE      PTCLDY    57  12  17 NE10G22   30.05R
PALM SPRINGS   PTCLDY    60   8  12 NW17G28   30.08R
EL CENTRO NAS  PTCLDY    57  25  29 N13       30.00R
IMPERIAL       CLEAR     59  24  26 N14       29.97R
BLYTHE         CLEAR     60  20  21 N13       29.97R
NEEDLES        PTCLDY    58  19  22 N24G31    30.02R
$$

NVZ020-UTZ003-030200-
SOUTHERN NEVADA-UTAH

CITY           SKY/WX    TMP DP  RH WIND       PRES   REMARKS
LAS VEGAS      FAIR      51  11  20 N16       30.14R
SALT LAKE CITY PTCLDY    33  22  63 N8        30.26R WCI  26
$$

NMZ009-TXZ055-030200-
NEW MEXICO-WEST TEXAS

CITY           SKY/WX    TMP DP  RH WIND       PRES   REMARKS
ALBUQUERQUE    CLOUDY    39  18  42 E31G38    30.00R WCI  27
EL PASO        CLOUDY    58  26  29 E9        29.88R
$$


........................KEY........................
SKY/WX - SKY CONDITION/WEATHER
TMP    - TEMPERATURE IN FAHRENHEIT
DP     - DEW POINT IN FAHRENHEIT
RH     - RELATIVE HUMIDITY IN PERCENT
WIND   - DIRECTION AND SPEED IN MILES PER HOUR (MPH)
VRB    - VARIABLE WIND DIRECTION
PRES   - MEAN SEA LEVEL PRESSURE IN INCHES OF MERCURY
         F - FALLING PRESSURE   R - RISING PRESSURE
         S - STEADY PRESSURE
VSB    - VISIBILITY IN MILES
HX     - HEAT INDEX IN FAHRENHEIT
WCI    - WIND CHILL INDEX IN FAHRENHEIT
TC     - TEMPERATURE IN CELSIUS WHICH IS ALSO KNOWN AS
         TEMPERATURE IN CENTIGRADE
AFB    - AIR FORCE BASE
         LUKE AFB IS LUKE AIR FORCE BASE
         DAVIS-MONTHAN IS DAVIS-MONTHAN AIR FORCE BASE
NAS    - NAVAL AIR STATION
         EL CENTRO NAS IS EL CENTRO NAVAL AIR STATION
N/A    - NOT AVAILABLE





USA.gov is the U.S. government's official web portal to all federal, state and local government web resources and services.